When you browse on this site, cookies collect data to enhance your experience and personalize the content and advertising you see.
Visit our Privacy Policy to learn more. By continuing to use the site, you agree to this use of cookies and data.
  • en Suisse
  • Liste des pays
  • À 7 jours
  • Température de l'eau
  • Carte météo
  • Widgets météo
  • user-avatar
    Se connecter

    Météo par heure à Salvador

    Ce jour, 10 Avril, Vendredi

    Heure Température Précipitation Vent Pression Humidité
    00:00 +28°C° 0.1 mm 4 m/s 754 mmHg 81%
    01:00 +28°C° 0.1 mm 4 m/s 754 mmHg 82%
    02:00 +28°C° 0.1 mm 3 m/s 754 mmHg 82%
    03:00 +27°C° 0.1 mm 3 m/s 754 mmHg 83%
    04:00 +27°C° 0.1 mm 2 m/s 754 mmHg 84%
    05:00 +27°C° 0.1 mm 2 m/s 755 mmHg 84%
    06:00 +27°C° 0.1 mm 1 m/s 755 mmHg 85%
    07:00 +28°C° 1.2 mm 1 m/s 755 mmHg 83%
    08:00 +28°C° 1.2 mm 1 m/s 756 mmHg 81%
    09:00 +29°C° 1.2 mm 1 m/s 756 mmHg 79%
    10:00 +29°C° 0.6 mm 1 m/s 756 mmHg 79%
    11:00 +29°C° 0.6 mm 1 m/s 756 mmHg 78%
    12:00 +30°C° 0.6 mm 1 m/s 755 mmHg 78%
    13:00 +30°C° 0.2 mm 2 m/s 755 mmHg 76%
    14:00 +30°C° 0.2 mm 2 m/s 754 mmHg 74%
    15:00 +30°C° 0.2 mm 2 m/s 753 mmHg 72%
    16:00 +30°C° 0.1 mm 3 m/s 753 mmHg 75%
    17:00 +29°C° 0.1 mm 3 m/s 754 mmHg 77%
    18:00 +29°C° 0.1 mm 3 m/s 754 mmHg 79%
    19:00 +29°C° 0 mm 3 m/s 754 mmHg 80%
    20:00 +28°C° 0 mm 4 m/s 755 mmHg 80%
    21:00 +28°C° 0 mm 4 m/s 755 mmHg 80%
    22:00 +28°C° 0 mm 3 m/s 755 mmHg 80%
    23:00 +28°C° 0 mm 3 m/s 755 mmHg 80%

    Demain, 11 Avril, Samedi

    Heure Température Précipitation Vent Pression Humidité
    00:00 +28°C° 0 mm 3 m/s 755 mmHg 81%
    01:00 +28°C° 0 mm 3 m/s 755 mmHg 81%
    02:00 +28°C° 0 mm 2 m/s 754 mmHg 82%
    03:00 +28°C° 0 mm 2 m/s 754 mmHg 82%
    04:00 +27°C° 0.5 mm 2 m/s 754 mmHg 84%
    05:00 +27°C° 0.5 mm 2 m/s 755 mmHg 86%
    06:00 +27°C° 0.5 mm 2 m/s 755 mmHg 88%
    07:00 +27°C° 1.5 mm 2 m/s 755 mmHg 87%
    08:00 +28°C° 1.5 mm 2 m/s 755 mmHg 87%
    09:00 +28°C° 1.5 mm 2 m/s 756 mmHg 86%
    10:00 +29°C° 1.4 mm 2 m/s 755 mmHg 83%
    11:00 +29°C° 1.4 mm 1 m/s 755 mmHg 80%
    12:00 +30°C° 1.4 mm 1 m/s 755 mmHg 78%
    13:00 +30°C° 1.1 mm 2 m/s 754 mmHg 79%
    14:00 +30°C° 1.1 mm 3 m/s 754 mmHg 80%
    15:00 +30°C° 1.1 mm 4 m/s 753 mmHg 81%
    16:00 +29°C° 0.8 mm 4 m/s 754 mmHg 83%
    17:00 +29°C° 0.8 mm 4 m/s 754 mmHg 84%
    18:00 +28°C° 0.8 mm 5 m/s 754 mmHg 86%
    19:00 +28°C° 1.4 mm 4 m/s 754 mmHg 86%
    20:00 +28°C° 1.4 mm 4 m/s 755 mmHg 87%
    21:00 +28°C° 1.4 mm 4 m/s 755 mmHg 87%
    22:00 +28°C° 1 mm 4 m/s 755 mmHg 87%
    23:00 +28°C° 1 mm 4 m/s 755 mmHg 88%

    Après-demain, 12 Avril, Dimanche

    Heure Température Précipitation Vent Pression Humidité
    00:00 +27°C° 1 mm 4 m/s 755 mmHg 88%
    01:00 +27°C° 2 mm 5 m/s 755 mmHg 88%
    02:00 +27°C° 2 mm 5 m/s 755 mmHg 89%
    03:00 +27°C° 2 mm 5 m/s 755 mmHg 89%
    04:00 +27°C° 3 mm 5 m/s 755 mmHg 90%
    05:00 +27°C° 3 mm 5 m/s 755 mmHg 91%
    06:00 +26°C° 3 mm 6 m/s 755 mmHg 93%
    07:00 +26°C° 3.6 mm 5 m/s 756 mmHg 92%
    08:00 +26°C° 3.6 mm 5 m/s 756 mmHg 91%
    09:00 +26°C° 3.6 mm 4 m/s 756 mmHg 90%
    10:00 +26°C° 0.8 mm 3 m/s 756 mmHg 88%
    11:00 +26°C° 0.8 mm 3 m/s 756 mmHg 86%
    12:00 +27°C° 0.8 mm 2 m/s 755 mmHg 84%
    13:00 +27°C° 0 mm 1 m/s 755 mmHg 82%
    14:00 +27°C° 0 mm 1 m/s 754 mmHg 81%
    15:00 +27°C° 0 mm 1 m/s 754 mmHg 79%
    16:00 +27°C° 0 mm 1 m/s 754 mmHg 81%
    17:00 +27°C° 0 mm 2 m/s 754 mmHg 82%
    18:00 +27°C° 0 mm 2 m/s 754 mmHg 83%
    19:00 +27°C° 0 mm 2 m/s 754 mmHg 83%
    20:00 +27°C° 0 mm 2 m/s 755 mmHg 83%
    21:00 +27°C° 0 mm 1 m/s 755 mmHg 83%
    22:00 +27°C° 0.2 mm 2 m/s 755 mmHg 84%
    23:00 +27°C° 0.2 mm 2 m/s 755 mmHg 85%

    13 Avril, Lundi

    Heure Température Précipitation Vent Pression Humidité
    00:00 +27°C° 0.2 mm 2 m/s 755 mmHg 87%
    01:00 +26°C° 1.3 mm 2 m/s 755 mmHg 89%
    02:00 +26°C° 1.3 mm 3 m/s 755 mmHg 90%
    03:00 +26°C° 1.3 mm 3 m/s 754 mmHg 92%
    04:00 +26°C° 1.5 mm 3 m/s 755 mmHg 91%
    05:00 +26°C° 1.5 mm 3 m/s 755 mmHg 91%
    06:00 +26°C° 1.5 mm 3 m/s 755 mmHg 90%
    07:00 +26°C° 1.5 mm 3 m/s 755 mmHg 90%
    08:00 +27°C° 1.5 mm 3 m/s 756 mmHg 89%
    09:00 +27°C° 1.5 mm 3 m/s 756 mmHg 88%
    10:00 +27°C° 1.3 mm 4 m/s 755 mmHg 87%
    11:00 +27°C° 1.3 mm 4 m/s 755 mmHg 86%
    12:00 +28°C° 1.3 mm 5 m/s 754 mmHg 85%
    13:00 +28°C° 0.6 mm 5 m/s 754 mmHg 84%
    14:00 +28°C° 0.6 mm 5 m/s 753 mmHg 84%
    15:00 +29°C° 0.6 mm 4 m/s 753 mmHg 83%
    16:00 +28°C° 0.8 mm 4 m/s 753 mmHg 84%
    17:00 +28°C° 0.8 mm 4 m/s 753 mmHg 85%
    18:00 +27°C° 0.8 mm 4 m/s 753 mmHg 85%
    19:00 +27°C° 1 mm 4 m/s 754 mmHg 85%
    20:00 +27°C° 1 mm 4 m/s 754 mmHg 85%
    21:00 +27°C° 1 mm 4 m/s 755 mmHg 85%
    22:00 +27°C° 0.1 mm 4 m/s 755 mmHg 85%
    23:00 +27°C° 0.1 mm 3 m/s 754 mmHg 85%

    14 Avril, Mardi

    Heure Température Précipitation Vent Pression Humidité
    00:00 +27°C° 0.1 mm 3 m/s 754 mmHg 85%
    01:00 +27°C° 0.1 mm 3 m/s 754 mmHg 86%
    02:00 +27°C° 0.1 mm 3 m/s 754 mmHg 87%
    03:00 +26°C° 0.1 mm 3 m/s 753 mmHg 87%
    04:00 +26°C° 0.1 mm 2 m/s 754 mmHg 88%
    05:00 +26°C° 0.1 mm 2 m/s 754 mmHg 90%
    06:00 +26°C° 0.1 mm 2 m/s 754 mmHg 91%
    07:00 +27°C° 0.2 mm 2 m/s 755 mmHg 86%
    08:00 +28°C° 0.2 mm 2 m/s 755 mmHg 82%
    09:00 +29°C° 0.2 mm 2 m/s 755 mmHg 77%
    10:00 +30°C° 0.1 mm 2 m/s 755 mmHg 73%
    11:00 +30°C° 0.1 mm 2 m/s 754 mmHg 70%
    12:00 +31°C° 0.1 mm 3 m/s 754 mmHg 66%
    13:00 +31°C° 0 mm 3 m/s 753 mmHg 66%
    14:00 +32°C° 0 mm 4 m/s 753 mmHg 66%
    15:00 +30°C° 0 mm 5 m/s 752 mmHg 66%
    16:00 +30°C° 0 mm 5 m/s 752 mmHg 68%
    17:00 +29°C° 0 mm 5 m/s 753 mmHg 71%
    18:00 +28°C° 0 mm 5 m/s 753 mmHg 73%
    19:00 +28°C° 0 mm 4 m/s 753 mmHg 75%
    20:00 +28°C° 0 mm 4 m/s 754 mmHg 77%
    21:00 +28°C° 0 mm 4 m/s 754 mmHg 79%
    22:00 +27°C° 0 mm 3 m/s 754 mmHg 80%
    23:00 +27°C° 0 mm 3 m/s 754 mmHg 81%

    15 Avril, Mercredi

    Heure Température Précipitation Vent Pression Humidité
    00:00 +27°C° 0 mm 3 m/s 754 mmHg 82%
    01:00 +27°C° 0 mm 2 m/s 754 mmHg 82%
    02:00 +27°C° 0 mm 2 m/s 754 mmHg 83%
    03:00 +27°C° 0 mm 2 m/s 754 mmHg 83%
    04:00 +26°C° 0.4 mm 2 m/s 754 mmHg 85%
    05:00 +26°C° 0.4 mm 2 m/s 754 mmHg 86%
    06:00 +26°C° 0.4 mm 2 m/s 755 mmHg 88%
    07:00 +27°C° 1.6 mm 2 m/s 755 mmHg 84%
    08:00 +28°C° 1.6 mm 2 m/s 755 mmHg 81%
    09:00 +29°C° 1.6 mm 2 m/s 756 mmHg 78%
    10:00 +30°C° 1 mm 2 m/s 755 mmHg 74%
    11:00 +30°C° 1 mm 2 m/s 755 mmHg 70%
    12:00 +31°C° 1 mm 2 m/s 755 mmHg 66%
    13:00 +31°C° 0.2 mm 3 m/s 754 mmHg 66%
    14:00 +31°C° 0.2 mm 3 m/s 754 mmHg 66%
    15:00 +31°C° 0.2 mm 3 m/s 753 mmHg 67%
    16:00 +30°C° 0 mm 4 m/s 754 mmHg 71%
    17:00 +29°C° 0 mm 4 m/s 754 mmHg 75%
    18:00 +29°C° 0 mm 4 m/s 754 mmHg 79%
    19:00 +28°C° 0.3 mm 4 m/s 755 mmHg 81%
    20:00 +28°C° 0.3 mm 4 m/s 755 mmHg 83%
    21:00 +28°C° 0.3 mm 3 m/s 755 mmHg 85%
    22:00 +27°C° 0.4 mm 3 m/s 755 mmHg 86%
    23:00 +27°C° 0.4 mm 3 m/s 755 mmHg 87%
    Voir plus